Location: Unspecified
(0.0000°N, 0.0000°E)
Time: 07:00:07
(UTC+00:00)

Amateur Radio Satellites - All Passes

Search period start: 03 September 2014 06:30
Search period end: 04 September 2014 06:30
Location: Unspecified, 0.0000°N, 0.0000°E

Satellite Date Start Highest point End Downlink Frequencies (MHz)
Time Altitude Azimuth
ISS 03 Sep 06:37:27 06:40:04 21° 306° (NW) 06:42:40 145.800 FM
Saudisat 1A 03 Sep 06:45:12 06:48:06 17° 68° (ENE) 06:50:59 436.775 MHz
PANSAT 03 Sep 07:01:06 07:02:51 13° 332° (NNW) 07:04:37 not established
SO-67 03 Sep 07:37:08 07:38:45 13° 281° (W) 07:40:22 435.3500 MHz FM
STRAND 1 03 Sep 07:38:32 07:40:56 13° 257° (WSW) 07:43:20 ?
KITSAT 1 03 Sep 08:07:18 08:14:33 37° 70° (ENE) 08:21:47 435.175 FM
Saudisat 1A 03 Sep 08:24:09 08:27:25 21° 248° (WSW) 08:30:42 436.775 MHz
HO-68 03 Sep 08:29:33 08:36:38 65° 105° (ESE) 08:43:44 435.675 MHz FM
UKube-1 03 Sep 09:35:29 09:39:28 36° 282° (WNW) 09:43:28 145.840 MHz, 145.915 MHz
Oscar 11 03 Sep 09:37:34 09:41:50 60° 282° (WNW) 09:46:07 145.825 FM, Beacon 2401.500 USB
KITSAT 1 03 Sep 10:03:04 10:09:36 28° 249° (WSW) 10:16:11 435.175 FM
MaSat-1 03 Sep 10:06:18 10:09:59 31° 105° (ESE) 10:14:06 437.345 MHz
FUNcube-1 03 Sep 10:13:03 10:17:37 66° 282° (WNW) 10:22:12 145.950 - 145.970 MHz USB
HO-68 03 Sep 10:21:12 10:23:58 13° 285° (WNW) 10:26:44 435.675 MHz FM
SO-50 03 Sep 11:41:00 11:44:01 16° 68° (ENE) 11:47:02 436.795 FM
MaSat-1 03 Sep 11:45:30 11:46:52 11° 291° (WNW) 11:48:15 437.345 MHz
Oscar 19 03 Sep 12:13:45 12:16:28 14° 77° (ENE) 12:19:10 437.125 CW, 437.150 USB
JAS-1B 03 Sep 12:44:08 12:51:43 26° 76° (ENE) 12:59:07 435.800 - 435.900 CW/SSB
Oscar 16 03 Sep 12:47:09 12:51:58 41° 77° (ENE) 12:56:46 437.025 USB, Beacon 2401.1428
ITAMSAT 1 03 Sep 12:54:21 12:57:23 16° 77° (ENE) 13:00:23 435.822 SSB
Uribyol 2 03 Sep 13:02:27 13:06:21 22° 77° (ENE) 13:10:13 436.500 FM
SO-50 03 Sep 13:20:14 13:24:21 28° 248° (WSW) 13:28:28 436.795 FM
UOSAT-12 03 Sep 13:21:41 13:22:50 11° 67° (ENE) 13:23:59 437.025 FM, 437.400 FM
AO-27 03 Sep 13:22:38 13:27:24 37° 77° (ENE) 13:32:08 436.795 MHz FM
Sapphire 03 Sep 13:23:33 13:27:47 24° 110° (ESE) 13:32:00 437.095 MHz 1200 baud AX-25 AFSK
AO-Echo 03 Sep 13:47:44 13:52:59 90° 258° (WSW) 13:58:02 ?
Oscar 19 03 Sep 13:50:56 13:55:32 33° 257° (WSW) 14:00:08 437.125 CW, 437.150 USB
PCSat 03 Sep 13:51:32 13:56:48 56° 109° (ESE) 14:02:04 145.825 MHz
Gurwin Techsat 1B 03 Sep 14:11:45 14:16:55 53° 78° (ENE) 14:22:03 435.225 FM
Oscar 16 03 Sep 14:29:25 14:31:02 11° 257° (WSW) 14:32:39 437.025 USB, Beacon 2401.1428
ITAMSAT 1 03 Sep 14:32:03 14:36:36 31° 257° (WSW) 14:41:08 435.822 SSB
JAS-1B 03 Sep 14:32:12 14:41:41 56° 256° (WSW) 14:51:07 435.800 - 435.900 CW/SSB
Uribyol 2 03 Sep 14:41:35 14:45:33 23° 257° (WSW) 14:49:30 436.500 FM
UOSAT-12 03 Sep 14:58:35 15:02:46 35° 248° (WSW) 15:06:53 437.025 FM, 437.400 FM
TMSAT-1 03 Sep 15:00:41 15:05:54 59° 258° (WSW) 15:11:05 436.925 FM
OPAL 03 Sep 15:04:15 15:05:53 11° 105° (ESE) 15:07:31 ?
AO-27 03 Sep 15:04:16 15:06:37 13° 257° (WSW) 15:08:58 436.795 MHz FM
Sapphire 03 Sep 15:06:47 15:10:55 23° 290° (WNW) 15:15:04 437.095 MHz 1200 baud AX-25 AFSK
PANSAT 03 Sep 15:27:36 15:29:56 15° 28° (NNE) 15:32:17 not established
AO-7 03 Sep 15:28:01 15:35:57 48° 74° (ENE) 15:43:49 29.400 - 29.500 MHz
RS-15 03 Sep 15:51:22 16:00:40 28° 69° (ENE) 16:10:12 29.354 - 29.394 USB, Beacon 29.352 USB
Uosat F 03 Sep 16:20:27 16:25:19 51° 257° (WSW) 16:30:10 435.120 FM
OPAL 03 Sep 16:39:38 16:44:29 42° 284° (WNW) 16:49:18 ?
PANSAT 03 Sep 17:06:16 17:10:06 78° 210° (SSW) 17:13:57 not established
AO-7 03 Sep 17:22:12 17:28:20 23° 253° (WSW) 17:34:28 29.400 - 29.500 MHz
Oscar 10/S400 03 Sep 17:28:46 17:47:21 47° 343° (NNW) 18:18:23 145.825 - 145.975 CW/USB, Beacon 145.810 USB
JAS-2 03 Sep 17:43:22 17:50:25 86° 257° (WSW) 17:56:34 435.800 - 435.900 CW/SSB, 435.910 FM
RS-15 03 Sep 18:01:32 18:12:35 52° 249° (WSW) 18:24:12 29.354 - 29.394 USB, Beacon 29.352 USB
Hamsat 03 Sep 18:04:30 18:08:21 33° 259° (WSW) 18:12:14 145.90 MHz
ISS 03 Sep 18:12:43 18:15:44 32° 234° (SW) 18:18:47 145.800 FM
STRAND 1 03 Sep 18:29:34 18:34:41 89° 283° (WNW) 18:39:50 ?
PANSAT 03 Sep 18:48:44 18:50:19 12° 207° (SSW) 18:51:54 not established
Saudisat 1A 03 Sep 18:50:35 18:54:16 26° 112° (ESE) 18:57:57 436.775 MHz
SO-67 03 Sep 19:20:43 19:23:30 23° 259° (W) 19:26:16 435.3500 MHz FM
UKube-1 03 Sep 20:11:32 20:13:24 13° 78° (ENE) 20:15:16 145.840 MHz, 145.915 MHz
KITSAT 1 03 Sep 20:14:54 20:22:37 49° 110° (ESE) 20:30:18 435.175 FM
HO-68 03 Sep 20:21:22 20:28:19 54° 76° (ENE) 20:35:13 435.675 MHz FM
Saudisat 1A 03 Sep 20:31:28 20:33:36 13° 293° (WNW) 20:35:44 436.775 MHz
UKube-1 03 Sep 21:45:42 21:49:21 26° 258° (WSW) 21:52:59 145.840 MHz, 145.915 MHz
Oscar 11 03 Sep 21:46:57 21:51:04 43° 258° (WSW) 21:55:10 145.825 FM, Beacon 2401.500 USB
MaSat-1 03 Sep 21:59:30 22:02:08 21° 70° (ENE) 22:04:29 437.345 MHz
HO-68 03 Sep 22:11:43 22:15:39 16° 254° (WSW) 22:19:34 435.675 MHz FM
KITSAT 1 03 Sep 22:12:00 22:17:42 21° 291° (WNW) 22:23:24 435.175 FM
FUNcube-1 03 Sep 22:24:27 22:28:23 42° 258° (WSW) 22:32:19 145.950 - 145.970 MHz USB
AO-40 03 Sep 22:53:46 23:10:56 10° 89° (E) 23:26:22 Beacon 2401.320
Oscar 10/S400 03 Sep 23:32:17 01:55:31 19° 113° (ESE) 03:26:29 145.825 - 145.975 CW/USB, Beacon 145.810 USB
SO-50 03 Sep 23:53:41 23:57:24 26° 112° (ESE) 00:01:06 436.795 FM
AO-Echo 04 Sep 00:41:54 00:43:17 11° 104° (ESE) 00:44:40 ?
Oscar 19 04 Sep 00:45:31 00:50:15 37° 103° (ESE) 00:54:59 437.125 CW, 437.150 USB
PCSat 04 Sep 00:48:19 00:49:55 11° 70° (ENE) 00:51:31 145.825 MHz
JAS-1B 04 Sep 00:57:19 01:00:36 16° 104° (ESE) 01:03:55 435.800 - 435.900 CW/SSB
Oscar 16 04 Sep 01:20:43 01:25:52 75° 282° (WNW) 01:31:02 437.025 USB, Beacon 2401.1428
ITAMSAT 1 04 Sep 01:27:30 01:32:22 42° 103° (ESE) 01:37:17 435.822 SSB
UOSAT-12 04 Sep 01:29:50 01:32:54 18° 112° (ESE) 01:36:01 437.025 FM, 437.400 FM
SO-50 04 Sep 01:35:36 01:37:41 13° 293° (WNW) 01:39:47 436.795 FM
Uribyol 2 04 Sep 01:36:06 01:41:12 59° 103° (ESE) 01:46:21 436.500 FM
AO-27 04 Sep 01:57:22 02:02:33 81° 283° (WNW) 02:07:47 436.795 MHz FM
Sapphire 04 Sep 01:58:45 02:04:08 75° 71° (ENE) 02:09:32 437.095 MHz 1200 baud AX-25 AFSK
TMSAT-1 04 Sep 02:00:05 02:04:21 25° 103° (ESE) 02:08:37 436.925 FM
AO-Echo 04 Sep 02:17:19 02:21:43 37° 282° (WNW) 02:26:16 ?
Oscar 19 04 Sep 02:27:05 02:29:19 13° 283° (WNW) 02:31:33 437.125 CW, 437.150 USB
PCSat 04 Sep 02:27:57 02:33:05 45° 251° (WSW) 02:38:13 145.825 MHz
JAS-1B 04 Sep 02:46:04 02:51:01 31° 283° (WNW) 02:56:02 435.800 - 435.900 CW/SSB
Gurwin Techsat 1B 04 Sep 02:50:16 02:55:24 53° 282° (WNW) 03:00:34 435.225 FM
UOSAT-12 04 Sep 03:09:27 03:12:47 21° 293° (WNW) 03:16:10 437.025 FM, 437.400 FM
ITAMSAT 1 04 Sep 03:09:54 03:11:35 12° 283° (WNW) 03:13:17 435.822 SSB
Uosat F 04 Sep 03:12:42 03:16:27 21° 103° (ESE) 03:20:13 435.120 FM
PANSAT 04 Sep 03:14:57 03:17:25 16° 152° (SSE) 03:19:52 not established
OPAL 04 Sep 03:33:17 03:37:30 28° 76° (ENE) 03:41:44 ?
RS-15 04 Sep 03:35:13 03:43:38 23° 113° (ESE) 03:51:44 29.354 - 29.394 USB, Beacon 29.352 USB
TMSAT-1 04 Sep 03:40:08 03:43:59 21° 283° (WNW) 03:47:52 436.925 FM
AO-7 04 Sep 03:53:58 04:02:13 76° 106° (ESE) 04:10:30 29.400 - 29.500 MHz
Hamsat 04 Sep 04:38:27 04:40:00 12° 102° (ESE) 04:41:32 145.90 MHz
Uosat F 04 Sep 04:51:11 04:54:58 22° 283° (WNW) 04:58:46 435.120 FM
PANSAT 04 Sep 04:53:43 04:57:34 74° 330° (NNW) 05:01:25 not established
OPAL 04 Sep 05:12:56 05:16:07 17° 256° (WSW) 05:19:19 ?
JAS-2 04 Sep 05:14:50 05:20:39 49° 104° (ESE) 05:27:13 435.800 - 435.900 CW/SSB, 435.910 FM
STRAND 1 04 Sep 05:26:09 05:28:39 14° 77° (ENE) 05:31:07 ?
RS-15 04 Sep 05:44:29 05:55:45 60° 290° (WNW) 06:06:33 29.354 - 29.394 USB, Beacon 29.352 USB
ISS 04 Sep 05:48:18 05:51:33 52° 305° (NW) 05:54:47 145.800 FM
AO-7 04 Sep 05:51:39 05:54:33 12° 287° (WNW) 05:57:28 29.400 - 29.500 MHz
Hamsat 04 Sep 06:12:09 06:15:42 26° 282° (WNW) 06:19:14 145.90 MHz
